Regional Weather Roundup
Issued by NWS

Home | Current Version | Previous Version | Graphics & Text | Print | Product List | Glossary On
Versions: 1 2 3 4 5 6 7 8 9 10 11 12 13 14 15 16 17 18 19 20 21 22 23 24 25 26 27 28 29 30 31 32 33 34 35 36 37 38 39 40 41 42 43 44 45 46 47 48 49 50
000
ASUS43 KIND 220409
RWRIN

WEATHER ROUNDUP FOR INDIANA
NATIONAL WEATHER SERVICE INDIANAPOLIS IN
1100 PM EST WED FEB 21 2018

NOTE: "FAIR" INDICATES FEW OR NO CLOUDS BELOW 12,000 FEET WITH NO
SIGNIFICANT WEATHER AND/OR OBSTRUCTIONS TO VISIBILITY.

* - STATION DOES NOT REPORT WEATHER SUCH AS PRECIPITATION OR FOG.

+ - STATION NOT QUALITY CONTROLLED BY THE NATIONAL WEATHER SERVICE.
    USE DATA WITH CAUTION...ESPECIALLY DEWPOINT AND RELATIVE
    HUMIDITY OBSERVATIONS.

INZ001>003-010>013-019-020-220500-
NORTHWEST INDIANA

CITY           SKY/WX    TMP DP  RH WIND       PRES   REMARKS
LA PORTE +     FAIR      29  26  88 N9        30.61S WCI  21
MICHIGAN CITY+ FAIR      30  28  93 NE8       30.62F WCI  23
MONTICELLO +   FAIR      32  30  92 N10       30.55F WCI  24
RENSSELAER +   CLOUDY    32  27  80 N13       30.58F WCI  22
VALPARAISO     FAIR      31  26  82 NE8       30.60F WCI  23

$$

LMZ046-743>745-220500-
SOUTHERN LAKE MICHIGAN

STATION/POSITION TIME  TEMP    WIND        PRES    WAVE
                       AIR SEA DIR/SP/G            HT
                 (UTC) (F)     (DEG/KT/KT) (MB)    (FT)
MICHIGAN CITY    0340   30      20/ 18/ 19   N/A

$$

INZ004-005-014>016-021>024-220500-
NORTH CENTRAL INDIANA

CITY           SKY/WX    TMP DP  RH WIND       PRES   REMARKS
GOSHEN         FAIR      33  29  85 N3        30.59S
LOGANSPORT +   MOCLDY    34  32  93 NE7       30.55F WCI  28
PERU/GRISSOM   FAIR      35  35 100 NE12      30.54F WCI  27
ROCHESTER +    FAIR      36  32  87 NE5       30.57F WCI  32
SOUTH BEND     FAIR      28  25  88 N7        30.61S WCI  21
WARSAW +       FAIR      32  32 100 SW8       30.58S WCI  25

$$

INZ006>009-017-018-025>027-220500-
NORTHEAST INDIANA

CITY           SKY/WX    TMP DP  RH WIND       PRES   REMARKS
AUBURN +       FAIR      34  32  93 NE7       30.59S WCI  28
FORT WAYNE     CLOUDY    38  33  82 NE10      30.57F WCI  31
HUNTINGTON +   CLOUDY    36  33  88 NE6       30.56F WCI  31
KENDALLVILLE + FAIR      33  31  92 NE6       30.58S WCI  28

$$

INZ028-029-035-036-043>045-051>053-220500-
WEST CENTRAL INDIANA

CITY           SKY/WX    TMP DP  RH WIND       PRES   REMARKS
CRAWFORDSVL +  CLOUDY    33  33 100 NE12      30.47  WCI  25
GREENCASTLE +  LGT RAIN  36  34  93 NE9       30.50F WCI  29
LAFAYETTE      CLOUDY    34  31  88 NE10      30.54F WCI  26
TERRE HAUTE    LGT RAIN  36  35  96 NE14      30.49F FOG     WCI  27

$$

INZ030>032-037>040-046>048-054>057-064-065-220500-
CENTRAL INDIANA

CITY           SKY/WX    TMP DP  RH WIND       PRES   REMARKS
FISHERS *+     CLOUDY    36  36 100 NE9       30.52F WCI  29
GREENWOOD *+   CLOUDY   N/A N/A N/A NE15G21   30.51S
INDIANAPOLIS   LGT RAIN  38  35  89 NE13      30.50F WCI  30
-EAGLE CREEK   LGT RAIN  38  34  85 NE8       30.51F FOG     WCI  32
KOKOMO +       CLOUDY    36  33  89 NE9       30.54F WCI  29
MARION +       CLOUDY    36  33  88 NE10      30.55F FOG     WCI  28
MT COMFORT *+  CLOUDY    37  37 100 N14       30.51F WCI  29
SHELBYVILLE    LGT RAIN  40  36  86 N15       30.49S WCI  32
ZIONSVILLE +   CLOUDY    35  34  96 NE10      30.52F WCI  27

$$

INZ033-034-041-042-049-050-058-059-220500-
EAST CENTRAL INDIANA

CITY           SKY/WX    TMP DP  RH WIND       PRES   REMARKS
MUNCIE         LGT RAIN  40  36  86 NE14      30.53F WCI  32
RICHMOND +     LGT RAIN  37  37 100 NE20      30.49R WCI  27

$$

INZ060-061-067>069-081>083-085>088-220500-
SOUTHWEST INDIANA

CITY           SKY/WX    TMP DP  RH WIND       PRES   REMARKS
EVANSVILLE     RAIN      41  40  96 N12       30.42F
HUNTINGBURG +  LGT RAIN  41  39  93 N13       30.43F
WASHINGTON +   RAIN      38  37  93 NE10      30.45F WCI  31

$$

INZ062-063-066-070>080-084-089>092-220500-
SOUTH CENTRAL AND SOUTHEAST INDIANA

CITY           SKY/WX    TMP DP  RH WIND       PRES   REMARKS
BATESVILLE +   CLOUDY    39  39 100 MISG      30.46S FOG
BEDFORD +      LGT RAIN  39  37  93 N8        30.46R WCI  34
BLOOMINGTON    RAIN      38  36  92 NE12      30.47F FOG     WCI  30
FRENCH LICK *+ CLOUDY    39 N/A N/A N8        30.43F WCI  34
MADISON *+     CLOUDY    43  41  93 NE10      30.44S
NORTH VERNON + LGT RAIN  39  39 100 N6        30.47R WCI  35
SEYMOUR +      RAIN      43  41  93 N12       30.47R

$$




USA.gov is the U.S. government's official web portal to all federal, state and local government web resources and services.